Location: Gold Fund Mine
(38.3819°N, 119.0996°W)
Time: 23:45:45
(UTC+00:00)

Cosmos 1500 - Pass Details

Date: 18 September 2020
Orbit: 498 x 520 km, 82.5° (Epoch: 20 October)

Event Time Altitude Azimuth Distance (km) Brightness Sun altitude
Rises 12:43:59 0° 339° (NNW) 2,646 6.7 -11.9°
Reaches altitude 10° 12:46:22 10° 326° (NW) 1,751 5.7 -11.5°
Maximum altitude 12:49:33 25° 270° (W) 1,061 4.2 -10.9°
Drops below altitude 10° 12:52:43 10° 214° (SSW) 1,730 5.5 -10.3°
Sets 12:55:04 0° 201° (SSW) 2,606 6.5 -9.8°
